Simultaneous Nadir Overpasses (SNOs) Predictions

Prediction of SNOs between GOES-16 and NOAA-19 Satellite Orbit:

Table of predicted SNOs for the next 14.0 days since TLE Epoch: 8/28/2021
Index Date Time (GOES-16) GOES-16 Lat,Lon NOAA-19 Lat,Lon Distance(km) Time Diff (sec)
1 08/30/2021 00:12:55 0.04, -75.21 -0.34, -76.74 175.43 80
2 08/30/2021 23:58:30 0.04, -75.21 0.32, -73.87 153.03 80
3 08/31/2021 23:46:45 0.05, -75.22 1.05, -71.01 481.47 80
4 09/02/2021 12:22:00 -0.02, -75.26 0.79, -78.80 403.98 80
5 09/03/2021 12:10:14 -0.03, -75.27 0.12, -75.93 75.32 80
6 09/04/2021 11:55:49 -0.04, -75.28 -0.55, -73.06 253.41 80
7 09/07/2021 00:19:16 0.02, -75.29 -0.62, -77.97 306.44 80
8 09/08/2021 00:04:50 0.03, -75.30 0.05, -75.10 23.01 80
9 09/08/2021 23:53:06 0.04, -75.32 0.78, -72.24 352.34 80
